Location: Burzi?i
(45.0869°N, 16.0577°E)
Time: 11:54:08
(UTC+00:00)

BREEZE-M TANK - Pass Details

Date: 29 October 2020
Orbit: 550 x 24736 km, 45.2° (Epoch: 27 November)

Event Time Altitude Azimuth Distance (km) Brightness Sun altitude
Rises 17:10:00 0° 277° (W) 6,757 9.6 -15.0°
Reaches altitude 10° 17:16:00 10° 277° (W) 4,018 8.0 -16.1°
Maximum altitude 17:23:29 86° 190° (S) 734 2.8 -17.4°
Enters shadow 17:25:01 35° 103° (ESE) 1,018 3.1 -17.7°
